Flag for U.S.A. Weather past 2 weeks in Kennebunk, Maine, U.S.A.

Now
71 °F

Clear.


Feels Like: 73 °F
Forecast: 65 / 80 °F
Wind: No wind

Location: Skyhaven Airport

Current Time: May 27, 2015 at 1:40:52 AM

Latest Report: May 27, 2015 at 12:51 AM


Visibility: 10 mi

Pressure: 30.09 "Hg

Humidity: 76%

Dew point: 63 °F

Location of KennebunkLocation

Historic Weather in Kennebunk — Graph

°F

Kennebunk temperature yesterday

Maximum temperature yesterday: 89 °F (at 3:51 PM)
Minimum temperature yesterday: 64 °F (at 4:51 AM)
Average temperature yesterday: 76 °F

Past Weeks' High & Low Weather Summary

 TemperatureHumidityPressure
High89 °F (May 26, 3:51 PM)97% (May 12, 7:51 AM)30.32 "Hg (May 12, 7:51 AM)
Low38 °F (May 15, 4:51 AM)17% (May 14, 4:51 PM)29.62 "Hg (May 12, 3:51 PM)
Average60 °F55%30.03 "Hg
* Reported May 11 11:59 PM — May 26 11:51 PM, Kennebunk, Weather by CustomWeather, © 2015

Note: Actual official high and low records may vary slightly from our data, if they occured in-between our weather recording intervals... More about our weather records

Advertising

Kennebunk weather history for previous 24 hours

 ConditionsComfort  
Time TempWeatherWind HumidityBarometerVisibility
11:51 PM
Tue, May 26
74 °FClear.No wind69%30.09 "Hg10 mi
10:51 PM75 °FClear.No wind66%30.08 "Hg10 mi
9:51 PM75 °FClear.No wind66%30.06 "Hg10 mi
8:51 PM78 °FSunny.No wind58%30.04 "Hg10 mi
7:51 PM81 °FSunny.3 mph54%30.03 "Hg10 mi
6:51 PM85 °FSunny.3 mph46%30.03 "Hg10 mi
5:51 PM88 °FPassing clouds.N/A39%30.02 "Hg10 mi
4:51 PM89 °FScattered clouds.7 mph38%30.02 "Hg10 mi
3:51 PM89 °FPassing clouds.8 mph38%30.02 "Hg10 mi
2:51 PM88 °FPartly sunny.7 mph39%30.03 "Hg10 mi
1:51 PM87 °FScattered clouds.5 mph40%30.04 "Hg10 mi
12:51 PM86 °FSunny.9 mph45%30.06 "Hg10 mi
11:51 AM83 °FSunny.8 mph51%30.07 "Hg10 mi
10:51 AM75 °FSunny.3 mph64%30.09 "Hg10 mi
9:51 AM73 °FScattered clouds.3 mph66%30.09 "Hg10 mi
8:51 AM72 °FPartly sunny.3 mph66%30.09 "Hg10 mi
7:51 AM68 °FPartly sunny.3 mph73%30.08 "Hg10 mi
6:51 AM66 °FScattered clouds.No wind75%30.08 "Hg10 mi
5:51 AM65 °FMostly cloudy.3 mph81%30.06 "Hg10 mi
4:51 AM64 °FOvercast.No wind87%30.06 "Hg10 mi
3:51 AM65 °FOvercast.No wind81%30.06 "Hg10 mi
2:51 AM65 °FPassing clouds.No wind81%30.06 "Hg10 mi
1:51 AM66 °FLight rain. Passing clouds.No wind78%30.07 "Hg10 mi
Weather by CustomWeather, © 2015

See weather overviewHow to use our weather pages